COSMOS 1375 DEB, 18413

Orbit data source: Space-Track

COSMOS 1375 DEB, 18413 is space debris in LEO originally from a launch on Sun, 06 Jun 1982 UTC launched from the Plesetsk Missile And Space Complex (PKMTR). Debris objects in space refer to the collection of defunct objects orbiting the Earth. Examples of debris include non-operational satellites, rocket bodies, and fragments generated from explosions, collisions, or faulty payload assembly.

Loading next visibility...
Identifier
18413, 1982-055BC
Orbit
LEO
Country
Flag of CISCIS
Related business
Manufacturer
Unknown
Mission
Spacecraft
Bus & Motor
Unknown
Mass
Unknown
Launch date (UTC)
1982-06-06 (44 years ago)
Launch vehicle
Unknown
Launch site
Plesetsk Missile And Space Complex (PKMTR)
Object type
Payload
Rocket body
Debris
Shape & HBR
Unknown shape, 0.1 m
Radar Cross Section
Medium (>0.1 m² and <1 m²)

Expand to show TLE details & history
Last TLE update: 3 days ago

TLE from 3 days ago
0 COSMOS 1375 DEB
1 18413U 82055BC  26170.45564568  .00000483  00000-0  61242-3 0  9999
2 18413  65.8229 331.4955 0071970 151.8205 240.7590 13.71603627 24859
Epoch: 2026-06-19T10:56Z
TLE epoch observation values (Epoch: 2026-06-19T10:56:07.786Z)
Latitude
28.84988°
Longitude
-85.97817°
Altitude
1,022.68 km
Speed
7.33 km/s
True Right ascension
23h 02m 57s
True Declination
28° 42' 36"
Sunlit
Object was in daylight at epoch
Visualization orbit readout
Latitude
Unknown
Longitude
Unknown
Altitude
Unknown
Speed
Unknown
Apparent Right ascension
Unknown
Apparent Declination
Unknown
Sunlit
N/A
Visualization observer readout
Local Sidereal Time
23:09:09
Azimuth
Unknown
Elevation
Unknown
Doppler factor
Unknown
Orbital elements
Apogee altitude
1,045.385 km
Perigee altitude
939.295 km
Semi-major axis
7,370.477 km
Eccentricity
0.0072
Inclination
65.8229°
RAAN
331.4955°
Arg. of periapsis
151.8205°
True anomaly
240.04254°
Mean anomaly
240.759°
Eccentric anomaly
240.40046°
Mean motion
3.43004 °/min
Orbital period
104.95 mins
BSTAR
0.00061242
Loading maneuver chart data...
Computing Atmospheric mass density...
Loading historical data...
Loading historical data...
Loading historical data...
Loading historical data...
Loading historical data...
Loading historical data...
Loading historical data...

Documentation

Showing up to 5 results
|